Flag Weather past 2 weeks in Rzeszów, Poland

Now
34 °F

Fog.


Feels Like: 28 °F
Forecast: 23 / 31 °F
Wind: 7 mph from East

Location: Rzeszow-Jasionka

Current Time: Nov 26, 2014 at 4:19:25 PM

Latest Report: Nov 26, 2014 at 4:00 PM


Visibility: 1 mi

Pressure: 30.24 "Hg

Humidity: 100%

Dew point: 34 °F

Location of RzeszówLocation

Historic Weather in Rzeszów — Graph

°F

Rzeszów temperature yesterday

Maximum temperature yesterday: 37 °F (at 6:30 PM)
Minimum temperature yesterday: 28 °F (at 12:00 AM)
Average temperature yesterday: 34 °F

Past Weeks' High & Low Weather Summary

 TemperatureHumidityPressure
High61 °F (Nov 11, 3:00 PM)100% (Nov 12, 1:30 AM)30.48 "Hg (Nov 12, 1:30 AM)
Low27 °F (Nov 24, 6:00 AM)68% (Nov 11, 3:00 PM)29.89 "Hg (Nov 13, 3:00 AM)
Average39 °F95%30.14 "Hg
* Reported Nov 11 3:00 PM — Nov 26 3:00 PM, Rzeszów, Weather by CustomWeather, © 2014

Note: Actual official high and low records may vary slightly from our data, if they occured in-between our weather recording intervals... More about our weather records

Advertising

Rzeszów weather history for previous 24 hours

 ConditionsComfort  
Time TempWeatherWind HumidityBarometerVisibility
3:00 PM
Nov 26
36 °FFog.8 mph100%30.24 "Hg1 mi
2:30 PM36 °FFog.6 mph100%30.24 "Hg1 mi
2:00 PM36 °FFog.6 mph100%30.27 "Hg1 mi
1:30 PM37 °FFog.5 mph100%30.27 "Hg2 mi
1:00 PM37 °FFog.2 mph100%30.27 "Hg2 mi
12:00 PM37 °FFog.No wind100%30.27 "Hg2 mi
11:30 AM37 °FFog.1 mph100%30.27 "Hg2 mi
11:00 AM37 °FDrizzle. Fog.1 mph100%30.30 "Hg1 mi
10:30 AM36 °FDrizzle. Fog.1 mph100%30.30 "Hg1 mi
10:00 AM36 °FFog.1 mph100%30.30 "Hg1 mi
9:30 AM34 °FFog.2 mph100%30.30 "Hg1 mi
9:00 AM34 °FFog.3 mph100%30.30 "Hg0 mi
8:30 AM34 °FFog.2 mph100%30.30 "Hg0 mi
8:00 AM34 °FFog.5 mph100%30.30 "Hg0 mi
7:30 AM34 °FFog.3 mph100%30.30 "Hg0 mi
7:00 AM34 °FFog.3 mph100%30.30 "Hg0 mi
6:30 AM34 °FFog.2 mph100%30.30 "Hg0 mi
6:00 AM36 °FFog.2 mph100%30.30 "Hg0 mi
5:30 AM36 °FFog.3 mph100%30.30 "Hg0 mi
5:00 AM36 °FFog.3 mph100%30.30 "Hg1 mi
4:30 AM36 °FFog.2 mph100%30.30 "Hg1 mi
4:00 AM36 °FFog.2 mph100%30.30 "Hg1 mi
3:30 AM36 °FFog.3 mph100%30.30 "Hg1 mi
3:00 AM36 °FFog.3 mph100%30.30 "Hg1 mi
2:30 AM36 °FFog.3 mph100%30.30 "Hg1 mi
2:00 AM36 °FFog.No wind100%30.30 "Hg1 mi
1:30 AM36 °FFog.No wind100%30.30 "Hg1 mi
1:00 AM36 °FFog.No wind100%30.33 "Hg1 mi
12:00 AM36 °FFog.1 mph100%30.33 "Hg1 mi
11:30 PM
Nov 25
36 °FFog.1 mph100%30.33 "Hg1 mi
11:00 PM36 °FMostly cloudy.No wind100%30.33 "Hg1 mi
10:30 PM37 °FFog.No wind100%30.33 "Hg1 mi
10:00 PM37 °FFog.1 mph100%30.33 "Hg1 mi
9:30 PM37 °FFog.1 mph100%30.33 "Hg1 mi
9:00 PM37 °FFog.1 mph100%30.33 "Hg1 mi
8:30 PM37 °FFog.No wind100%30.33 "Hg1 mi
8:00 PM37 °FFog.No wind100%30.33 "Hg0 mi
7:30 PM37 °FLight rain. Fog.1 mph100%30.33 "Hg1 mi
7:00 PM37 °FLight rain. Fog.No wind93%30.33 "Hg1 mi
6:30 PM37 °FLight rain. Fog.1 mph93%30.33 "Hg1 mi
6:00 PM36 °FLight rain. Fog.1 mph100%30.33 "Hg1 mi
5:30 PM36 °FLight rain. Fog.2 mph100%30.33 "Hg1 mi
5:00 PM36 °FFog.2 mph100%30.33 "Hg1 mi
4:30 PM36 °FFog.1 mph100%30.33 "Hg2 mi
4:00 PM36 °FFog.2 mph100%30.33 "Hg2 mi
Weather by CustomWeather, © 2014

See weather overviewHow to use our weather pages